CHINASAT 6E (ZX 6E)

Last updated on Sat Jun 29 2024 00:02:41 GMT+0000 (Coordinated Universal Time)

1 58253U 23172A 24179.69795480 -.00000358 00000+0 00000+0 0 9994 2 58253 0.0343 274.5503 0003267 181.6905 186.7652 1.00266367 2445
UTC large
Height (km)
Speed (km/s)
/
Latitude / Longitude
Inclination (degrees)
Orbital Period (minutes)
Azimuth
Elevation
Range (km)
Doppler Factor

Next 0 passes for location: London (51.5072 / 0.1276)

Sorry there are no passes over London.